Regional Weather Roundup
Issued by NWS Pendleton, OR

Home | Current Version | Previous Version | Text Only | Print | Product List | Glossary On
Versions: 1 2 3 4 5 6 7 8 9 10 11 12 13 14 15 16 17 18 19 20 21 22 23 24 25 26 27 28 29 30 31 32 33 34 35 36 37 38 39 40 41 42 43 44 45 46 47 48 49 50
438
ASUS46 KPDT 040210
RWRPDT
PENDLETON REGIONAL WEATHER ROUNDUP
NATIONAL WEATHER SERVICE PENDLETON OREGON
600 PM PST SAT DEC 3 2016

NOTE: FAIR INDICATES FEW OR NO CLOUDS BELOW 12,000 FEET WITH NO
SIGNIFICANT WEATHER AND/OR OBSTRUCTIONS TO VISIBILITY.

# INDICATES UNOFFICIAL STATION AND DATA

WAZ520-040310-
EAST SLOPES OF WASHINGTON CASCADES

CITY            SKY/WX      TMP DP  RH  WIND    PRES   REMARKS
#CLE ELUM HS    N/A         39  33  79  CALM    30.05F
#CLE ELUM LAKE  N/A         38  33  82  CALM    30.09F
#GLENWOOD       N/A         41  36  82  S7      30.18F
#MANASTASH CYN  N/A         35  27  72  CALM    30.04F
#NELSON 3SW     N/A         35  32  89  CALM    30.34F
#NILE           N/A         34  30  85  CALM    29.39F
#RONALD 2NW     N/A         38  N/A N/A W3      30.02F
#TEANAWAY 4NE   N/A         39  34  82  CALM    N/A
#TROUT LAKE 1NE N/A         39  36  89  W6      30.21F
#TROUT LAKE 1E  N/A         40  37  89  CALM    30.14F
$$

WAZ521-040310-
SIMCOE HIGHLANDS

CITY            SKY/WX      TMP DP  RH  WIND    PRES   REMARKS
#CENTERVILLE 1SWN/A         40  35  82  W13     30.17F WCI 32
#GOLDENDALE 1NE N/A         42  27  55  SW7     N/A
#GOLDENDALE 4W  N/A         43  21  41  W14     30.19F WCI 36
#GOODNOE HILLS  N/A         44  35  70  W15     30.08F WCI 37
#LYLE 6NE       N/A         42  38  86  SW7     30.18F
$$

WAZ026-040310-
KITTITAS VALLEY

CITY            SKY/WX      TMP DP  RH  WIND    PRES   REMARKS
ELLENSBURG AP   MOCLDY      40  32  73  NW7     30.09F
#ELLENSBURG CWU N/A         40  33  76  NW2     30.07F
#ELLENSBURG 3NE N/A         40  34  79  N1      30.09F
#KITTITAS 4N    N/A         38  32  79  W8      30.12F
#KITTITAS 3S    N/A         35  31  85  CALM    30.13F
#THORP 6N       N/A         38  34  85  NW12    30.13F WCI 30
$$

WAZ027-040310-
YAKIMA VALLEY

CITY            SKY/WX      TMP DP  RH  WIND    PRES   REMARKS
SUNNYSIDE AP    CLOUDY      41  31  67  S7      30.14F
YAKIMA AIRPORT  MOCLDY      45  30  55  S7      30.10F
YAKIMA-VAGABOND CLEAR       42  28  57  SE3     30.07F
#GRANDVIEW      N/A         44  30  58  CALM    30.17F
#MABTON         N/A         47  36  65  SW7     30.13F
#NACHES 2SW     N/A         41  32  70  W5      30.11F
#TERRACE HTS    N/A         43  32  65  CALM    30.13F
#TOPPENISH      N/A         45  32  60  CALM    30.07F
#WEST VALLEY    N/A         45  30  55  CALM    30.13F
#W YAKIMA       N/A         45  31  58  W2      30.14F
#WHITE SWAN 5E  N/A         47  33  58  SW10    30.15F
#WILEY CITY 3W  N/A         41  28  59  CALM    30.06F
$$

WAZ028-040310-
LOWER COLUMBIA BASIN...WASHINGTON

CITY            SKY/WX      TMP DP  RH  WIND    PRES   REMARKS
PASCO           MOCLDY      48  35  60  SW17    30.15F WCI 42
PROSSER AWOS    N/A         43  32  65  W6      30.18F
RICHLAND AWOS   PTCLDY      48  35  60  SW15G24 30.15F WCI 42
#BENTON CITY    N/A         43  33  67  W1      30.06F
#CONNELL 5N     N/A         42  36  79  SW7     30.14F
#CONNELL 5NW    N/A         42  36  79  S7      30.11F
#ELTOPIA 6NW    N/A         42  36  79  CALM    29.09F
#KAHLOTUS       N/A         43  35  73  W25G33  30.13F WCI 33
#KENNEWICK 3S   N/A         44  35  70  N8      30.16F
#PATERSON       N/A         47  36  65  N12     30.16F WCI 42
#SAGEMOOR 2W    N/A         43  34  70  S7      29.99F
#TOUCHET 2S     N/A         48  35  60  SW5G28  30.15F
#WEST PASCO     N/A         48  36  63  SW7     30.16F
$$

WAZ029-040310-
FOOTHILLS OF THE BLUES...WASHINGTON

CITY            SKY/WX      TMP DP  RH  WIND    PRES   REMARKS
WALLA WALLA AP  CLOUDY      46  34  63  S16     30.18F WCI 39
#CLYDE 6NW      N/A         43  35  73  SW13    30.15F WCI 36
#DAYTON SCHOOL  N/A         44  28  53  S13G24  30.17F WCI 38
#LOWDEN 2SE     N/A         49  36  61  SW6     30.16F
#PLEASANT VIEW 1N/A         40  35  82  S13     30.20F WCI 32
#PRESCOTT       N/A         44  35  70  CALM    30.18F
#WHITMAN COLLEGEN/A         47  36  65  S2      30.25F
#WAITSBURG 5S   N/A         42  36  79  S8      30.29F
#WAITSBURG 8N   N/A         41  N/A N/A S15     30.17F WCI 33
#WHITMAN MISSIONN/A         49  36  61  SW7     30.21F
$$

WAZ030-040310-
BLUE MOUNTAINS...WASHINGTON

CITY            SKY/WX      TMP DP  RH  WIND    PRES   REMARKS
#DIXIE 5SE      N/A         38  32  79  SW17G30 30.07F WCI 29
#SKI BLUEWOOD   N/A         31  28  88  S1      30.08F
$$

ORZ009-041-WAZ024-040310-
COLUMBIA RIVER GORGE

CITY            SKY/WX      TMP DP  RH  WIND    PRES   REMARKS
HOOD RIVER AP   LGT DRIZZLE 46  41  83  NW7     30.23F
THE DALLES AP   PTCLDY      49  39  68  W14     30.21F WCI 44
#ARLINGTON AIRPON/A         46  36  68  SW3     30.21F
#ARLINGTON HS   N/A         49  34  56  SE3     30.12F
#CELILO DOT     N/A         49  34  56  SW5     N/A
#LYLE           N/A         49  41  74  NW1     30.23F
#MOSIER 1S      N/A         45  32  60  NW2     N/A
#MURDOCK        N/A         48  41  77  W8      30.18F
#RUFUS DOT      N/A         50  38  63  W9      N/A
#SMITHVILLE     N/A         48  41  77  N12     30.17F WCI 43

$$

ORZ510-040310-
NORTH CENTRAL OREGON

CITY            SKY/WX      TMP DP  RH  WIND    PRES   REMARKS
#ANTELOPE       N/A         34  27  75  CALM    30.13F
#CHENOWITH 1W   N/A         40  38  92  NW14    N/A    WCI 32
#COW CYN RST AREN/A         37  N/A N/A SW2     N/A
#DUFUR 9E       N/A         40  31  70  SE12    30.26F WCI 33
#GRASS VALLEY 1SN/A         38  32  79  W7      30.10F
#KENT DOT       N/A         36  21  54  N8      N/A
#MAUPIN SCHOOL  N/A         46  35  65  SW7     30.24F
#MORO SCHOOL    N/A         39  35  85  CALM    30.17F
#SHANIKO 5WSW   N/A         36  20  52  N16     N/A    WCI 26
#SHANIKO 4NW    N/A         35  27  72  W15     30.17F WCI 25
#WAPANITIA AIRPON/A         42  33  70  W7      30.25F
#WASCO DOT      N/A         41  32  70  SW6     N/A
#WASCO 5NE      N/A         42  35  76  SW3     30.22F
$$

ORZ511-040310-
CENTRAL OREGON

CITY            SKY/WX      TMP DP  RH  WIND    PRES   REMARKS
BEND AIRPORT    PTCLDY      37  27  67  S7      30.20F
MADRAS AIRPORT  PTCLDY      34  27  75  SE6     30.22F
PRINEVILLE AP   MOCLDY      37  27  67  CALM    30.21F
REDMOND AIRPORT PTCLDY      32  23  69  SE5     30.20F
#ASHWOOD SCHOOL N/A         35  29  78  CALM    30.17F
#BEND 1SW       N/A         35  29  78  S2      N/A
#BEND-AWBREY    N/A         36  29  75  S7      30.25F
#BEND-KIM LN    N/A         32  26  78  S1      30.12F
#CULVER         N/A         38  28  67  SE5     30.17F
#CULVER 8W      N/A         40  25  55  SW2     30.17F
#LAKE BILLY CHINN/A         40  N/A N/A SW10    30.26F
#MADRAS 4S      N/A         N/A N/A N/A N12     30.26F
#POWELL BUTTE 3EN/A         36  26  67  S2      N/A
#POWELL BUTTE   N/A         36  26  67  S1      30.14F
#PRINEVILLE 3N  N/A         33  27  78  SE3     30.26F

$$


ORZ509-040310-
EAST SLOPES OF OREGON CASCADES

CITY            SKY/WX      TMP DP  RH  WIND    PRES   REMARKS
SISTERS AWOS    N/A         37  28  70  W7      30.16S
#BLUE BOX PASS  N/A         N/A N/A N/A CALM    N/A
#CAMP SHERMAN   N/A         37  28  70  SE1     30.34F
#LA PINE 4NW    N/A         28  23  81  CALM    30.35F
#LAVA BUTTE DOT N/A         33  24  69  S2      N/A
#SISTERS AIRPOR N/A         37  32  82  N1      30.17S
#SISTERS ODOT   N/A         36  N/A N/A CALM    N/A
#SISTERS 3N     N/A         36  24  61  NW2     30.17F
#SUNRIVER       N/A         34  28  78  SE3     30.30F
#SUTTLE LK DOT  N/A         30  28  92  W38G63  N/A    WCI 13
#TUMALO 3W      N/A         34  27  75  CALM    30.13F
#WANOGA BUTTE D N/A         27  21  78  W9      N/A

$$

ORZ044-040310-
LOWER COLUMBIA BASIN...OREGON

CITY            SKY/WX      TMP DP  RH  WIND    PRES   REMARKS
HERMISTON       CLOUDY      45  34  65  SW13    30.19F WCI 39
#BOARDMAN SCHOOLN/A         49  35  58  SW14    30.18F WCI 44
#I-84 EX 198 DOTN/A         45  34  65  N14     N/A    WCI 39
#UMATILLA       N/A         48  33  56  S8      30.13F
$$

ORZ507-040310-
NORTHERN FOOTHILLS OF THE BLUES

CITY            SKY/WX      TMP DP  RH  WIND    PRES   REMARKS
PENDLETON AIRPT CLOUDY      42  33  70  SW12    30.18F WCI 35
#ADAMS 3WNW     N/A         42  35  76  SW8     30.20F
#ATHENA         N/A         43  35  73  S7      30.22F
#CAYUSE         N/A         43  36  76  S3      30.20F
#HELIX SCHOOL   N/A         42  35  76  N13     30.21F WCI 35
#HELIX 3N       N/A         41  35  79  SW13    30.12F WCI 34
#HOLDMAN 5SE    N/A         42  34  73  SW7     30.17F
#HOLDMAN 6E     N/A         41  34  76  SW10    30.01F
#M-F GROVE ELEM N/A         46  33  60  CALM    30.16F
#M-FREEWATER 5SEN/A         45  34  65  S2      30.19F
#PENDLETON DNTN N/A         46  29  51  SW3     30.19F
#PDT AQUATIC CTRN/A         44  32  62  S3      30.19F
#PDT SUNRIDGE   N/A         43  35  73  CALM    30.21F
#PENDLETON 7NW  N/A         44  34  68  SW1     27.60S
#PILOT ROCK 1S  N/A         44  31  60  S2      30.18F
#PILOT ROCK     N/A         43  34  70  W7      30.19F
#TUTUILLA       N/A         43  36  76  CALM    30.20F
#UMAPINE 2E     N/A         47  37  68  SW3     30.17F
#WESTON SCHOOL  N/A         42  31  65  W7      30.06F

$$

ORZ508-040310-
SOUTHERN FOOTHILLS OF THE BLUES

CITY            SKY/WX      TMP DP  RH  WIND    PRES   REMARKS
LEXINGTON       MOCLDY      45  32  60  S9      30.22F
#AJAX           N/A         41  24  50  SE13    27.92F WCI 34
#CONDON SCHOOL  N/A         38  30  73  SW6     30.12F
#CONDON 5W      N/A         35  26  69  SW9     30.13F
#HEPPNER EOC    N/A         42  33  70  SW2     30.16F
#HEPPNER 4NE    N/A         38  31  76  SW6     30.22F
#LEXINGTON 2SE  N/A         43  32  65  CALM    30.17F
#MIKKALO        N/A         42  30  62  SW6     30.27F
#OLEX 4N        N/A         42  35  76  S1      30.19F
#RUGGS 5NE      N/A         36  32  85  S7      30.30F
#RUGGS 2SW      N/A         39  30  70  SW1     30.25F

$$

ORZ502-503-040310-
BLUE MOUNTAINS

CITY            SKY/WX      TMP DP  RH  WIND    PRES   REMARKS
MEACHAM         CLOUDY      36  30  79  CALM    30.14F
#BATTLE MTN DOT N/A         32  31  96  S2      N/A
#GREENHORN 9SW  N/A         30  30  100 CALM    26.38S
#LADD CYN SMT   N/A         32  30  92  SE14    N/A    WCI 22
#LADD CREEK ODOTN/A         34  -9  15  SW3     N/A
#LONG CREEK HS  N/A         34  32  92  CALM    30.19F
#PIKES PEAK     N/A         35  29  78  SW23G32 27.99S WCI 23
#TOLLGATE       N/A         29  28  96  CALM    29.95F
#TROY SCHOOL    N/A         41  37  86  CALM    30.07F
#UKIAH          N/A         34  31  89  CALM    30.16F
#WESTON 4E      N/A         36  32  85  S9      30.18F
$$

ORZ505-040310-
JOHN DAY BASIN

CITY            SKY/WX      TMP DP  RH  WIND    PRES   REMARKS
JOHN DAY        PTCLDY      36  29  75  E6      30.20F
#ANTELOPE 9ESE  N/A         42  29  60  SW1     N/A
#DAYVILLE SCHOOLN/A         40  30  67  CALM    30.15F
#MITCHELL       N/A         36  29  75  CALM    30.35F
#MITCHELL 8NW   N/A         37  27  67  CALM    30.43F
#MONUMENT HS    N/A         40  30  67  CALM    30.19S
#MT. VERNON 5SE N/A         36  28  72  CALM    30.14F
#SPRAY SCHOOL   N/A         42  N/A N/A CALM    N/A
$$

ORZ506-040310-
OCHOCO AND JOHN DAY HIGHLANDS

CITY            SKY/WX      TMP DP  RH  WIND    PRES   REMARKS
#BUCK CREEK DOT N/A         39  26  59  W6      N/A
#HORSE RIDGE DO N/A         34  22  61  S6      N/A
#KEYES SMT DOT  N/A         34  26  72  SW23G32 N/A    WCI 22
#PAULINA SCHOOL N/A         37  27  67  NW2     N/A
#PINE MTN OBS   N/A         33  19  56  S7      N/A
#PRAIRIE CITY   N/A         32  26  78  CALM    30.38S
#SENECA         N/A         27  N/A N/A CALM    N/A
#SENECA 9NW     N/A         27  24  88  CALM    30.29F
$$

ORZ049-040310-
GRANDE RONDE VALLEY

CITY            SKY/WX      TMP DP  RH  WIND    PRES   REMARKS
LA GRANDE       MOCLDY      37  25  61  S9      30.17F
#COVE           N/A         41  33  73  E1      30.20F
#COVE SCHOOL    N/A         39  29  67  CALM    30.18F
#COVE 6NW       N/A         38  32  79  SE1     30.27F
#ELGIN 3N       N/A         38  29  70  S5      30.12F
#ELGIN 1E       N/A         39  31  73  CALM    N/A
#IMBLER SCHOOL  N/A         37  31  79  SE3     30.12F
#ISLAND CITY 4N N/A         46  45  96  CALM    30.29F
#LADD CYN DOT   N/A         38  31  76  S10     N/A
#UNION 1S       N/A         38  31  76  S3      30.28F
$$

ORZ050-040310-
WALLOWA COUNTY

CITY            SKY/WX      TMP DP  RH  WIND    PRES   REMARKS
JOSEPH AIRPORT  CLOUDY      32  27  82  S5      30.15F
#IMNAHA SCHOOL  N/A         44  29  55  S7      30.19S
#IMNAHA 10S     N/A         40  28  62  CALM    30.19S
#JOSEPH 3N      N/A         31  23  72  E2      30.14F
#JOSEPH 3W      N/A         30  23  75  CALM    29.96F
#LOSTINE        N/A         39  27  62  CALM    30.03F
#LOSTINE 3SE    N/A         35  26  69  SE2     30.14F
#MT HOWARD 8000 N/A         19  14  80  CALM    30.02F
#PROMISE 1S     N/A         34  31  89  E5      30.33F
#WALLOWA SCHOOL N/A         41  28  59  CALM    30.12F



$$



USA.gov is the U.S. government's official web portal to all federal, state and local government web resources and services.